Temp
-5 -5 -5 -5 -5 -5 -5 -5 -5 -5 -5 -5 -5 -5 -5 -5 -5 -5 -5 -5 -5 -5 -5 -5 -5 -5 -5 -5 -5 -5 -5 -5 -5 -5 -5 -5 -5 -5 -5 -5 -5 -5
-5 -5 -5 -5 -5 -5 -5 -5 -5 -5 -5 -5 -5 -5 -5 -5 -5 -5 -5 -5 -5 -5 -5 -5 -5 -5 -5 -5 -5 -5 -5 -5 -5 -5 -5 -5 -5 -5 -5 -5 -5 -5
-5 -5 -5 -5 -5 -5 -5 -5 -5 -5 -5 -5 -5 -5 -5 -5 -5 -5 -5 -5 -5 -5 -5 -5 -5 -5 -5 -5 -5 -5 -5 -5 -5 -5 -5 -5 -5 -5 -5 -5 -5 -5
-5 -5 -5 -5 -5 -5 -5 -5 -5 -5 -5 -5 -5 -5 -5 -5 -5 -5 -5 -5 -5 -5 -5 -5 -5 -5 -5 -5 -5 -5 -5 -5 -5 -5 -5 -5 -5 -5 -5 -5 -5 -5
-5 -5 -5 -5 -5 -5 -5 -5 -5 -5 -5 -5 -5 -5 -5 -5 -5 -5 -5 -5 -5 -5 -5 -5 -5 -5 -5 -5 -5 -5 -5 -5 -5 -5 -5 -5 -5 -5 -5 -5 -5 -5
-5 -5 -5 -5 -5 -5 -5 -5 -5 -5 -5 -5 -5 -5 -5 -5 -5 -5 -5 -5 -5 -5 -5 -5 -5 -5 -5 -5 -5 -5 -5 -5 -5 -5 -5 -5 -5 -5 -5 -5 -5 -5
-5 -5 -5 -5 -5 -5 -5 -5 -5 -5 -5 -5 -5 -5 -5 -5 -5 -5 -5 -5 -5 -5 -5 -5 -5 -5 -5 -5 -5 -5 -5 -5 -5 -5 -5 -5 -6 -5 -5 -5 -5 -6
-5 -5 -5 -5 -5 -5 -5 -5 -5 -5 -5 -5 -5 -5 -5 -5 -5 -5 -5 -5 -5 -5 -5 -5 -5 -5 -5 -5 -5 -5 -5 -5 -5 -5 -5 -6 -6 -6 -6 -6 -6 -6
-6 -5 -5 -5 -5 -5 -5 -5 -5 -5 -5 -6 -6 -6 -6 -5 -5 -5 -5 -5 -5 -5 -5 -5 -5 -5 -5 -5 -6 -6 -6 -6 -6 -6 -6 -6 -6 -6 -6 -6 -6 -6
-6 -6 -6 -6 -5 -5 -5 -5 -5 -5 -6 -6 -6 -6 -6 -6 -5 -5 -5 -5 -6 -6 -6 -6 -6 -6 -6 -6 -6 -6 -6 -6 -6 -6 -6 -6 -6 -6 -6 -6 -6 -6
-6 -6 -6 -6 -5 -5 -5 -5 -5 -6 -6 -6 -6 -6 -6 -6 -6 -6 -6 -6 -6 -6 -6 -6 -6 -6 -6 -6 -6 -6 -6 -6 -6 -6 -6 -6 -6 -6 -6 -6 -6 -6
-6 -6 -6 -6 -6 -5 -5 -6 -6 -6 -6 -6 -6 -6 -6 -6 -6 -6 -6 -6 -6 -6 -6 -6 -6 -6 -6 -6 -6 -6 -6 -6 -6 -6 -6 -6 -6 -6 -6 -6 -6 -6
-6 -6 -6 -6 -6 -6 -6 -6 -6 -6 -6 -6 -6 -6 -6 -6 -6 -6 -6 -6 -6 -6 -6 -6 -6 -6 -6 -6 -6 -6 -6 -6 -6 -7 -7 -7 -7 -7 -7 -7 -7 -7
-6 -6 -6 -6 -6 -6 -6 -6 -6 -6 -6 -6 -6 -6 -6 -6 -6 -6 -6 -6 -6 -6 -6 -6 -6 -6 -6 -6 -6 -6 -7 -7 -7 -7 -7 -7 -7 -7 -7 -7 -7 -7
-6 -6 -6 -6 -6 -6 -6 -6 -6 -6 -6 -6 -6 -6 -6 -6 -6 -6 -6 -6 -6 -6 -6 -6 -7 -7 -7 -7 -7 -7 -7 -7 -7 -7 -7 -7 -7 -7 -7 -7 -7 -7
-6 -6 -6 -6 -6 -7 -7 -7 -6 -6 -6 -6 -6 -6 -6 -6 -6 -6 -6 -6 -7 -7 -7 -7 -7 -7 -7 -7 -7 -7 -7 -7 -7 -7 -7 -7 -7 -7 -7 -7 -7 -7
-7 -7 -7 -7 -7 -7 -7 -7 -7 -6 -6 -6 -6 -6 -6 -6 -6 -7 -7 -7 -7 -7 -7 -7 -7 -8 -8 -8 -8 -8 -8 -8 -8 -8 -8 -8 -8 -8 -8 -8 -8 -8
-7 -7 -7 -7 -7 -7 -7 -7 -7 -7 -7 -7 -7 -7 -7 -7 -7 -7 -7 -7 -8 -8 -8 -8 -8 -8 -8 -8 -8 -8 -8 -8 -8 -8 -8 -8 -8 -8 -8 -8 -8 -8
-7 -7 -7 -7 -7 -7 -7 -7 -7 -7 -7 -7 -7 -7 -7 -7 -8 -8 -8 -8 -8 -8 -8 -8 -8 -8 -8 -8 -8 -8 -8 -8 -8 -8 -8 -8 -8 -8 -8 -8 -8 -8
-7 -7 -7 -7 -7 -7 -7 -7 -7 -7 -7 -7 -7 -8 -8 -8 -8 -8 -8 -8 -8 -8 -8 -8 -8 -8 -8 -8 -8 -8 -8 -8 -8 -8 -8 -8 -8 -8 -8 -8 -8 -8
-7 -7 -7 -7 -7 -7 -7 -7 -7 -7 -7 -8 -8 -8 -8 -8 -8 -8 -8 -8 -8 -8 -8 -8 -8 -8 -8 -8 -8 -8 -8 -8 -8 -8 -8 -8 -8 -8 -8 -9 -9 -9
-7 -7 -8 -8 -8 -8 -8 -8 -8 -8 -8 -8 -8 -8 -8 -8 -8 -8 -8 -8 -8 -8 -8 -8 -8 -8 -8 -8 -8 -8 -8 -8 -8 -8 -8 -9 -9 -9 -9 -9 -9 -9
-8 -8 -8 -8 -8 -8 -8 -8 -8 -8 -8 -8 -8 -8 -8 -8 -8 -8 -8 -8 -8 -8 -8 -8 -8 -9 -9 -9 -9 -9 -9 -9 -9 -9 -9 -9 -9 -9 -9 -9 -9 -9
-8 -8 -8 -8 -8 -8 -8 -8 -8 -8 -8 -8 -8 -8 -8 -8 -8 -8 -8 -8 -8 -9 -9 -9 -9 -9 -9 -9 -9 -9 -9 -9 -9 -9 -9 -9 -9 -9 -9 -9 -9 -9
-8 -8 -8 -8 -8 -8 -8 -8 -8 -8 -8 -8 -8 -8 -8 -8 -8 -8 -9 -9 -9 -9 -9 -9 -9 -9 -9 -9 -9 -9 -9 -9 -10 -10 -9 -10 -10 -10 -10 -10 -9 -9
-8 -8 -8 -8 -8 -8 -8 -8 -8 -8 -8 -8 -8 -8 -8 -8 -9 -9 -9 -9 -9 -9 -9 -9 -9 -9 -10 -10 -10 -10 -10 -10 -10 -10 -10 -10 -10 -10 -10 -10 -10 -10
Height
5904 5904 5905 5905 5905 5905 5904 5904 5904 5904 5904 5904 5904 5903 5903 5903 5902 5902 5902 5901 5901 5901 5900 5899 5899 5898 5898 5897 5896 5896 5895 5894 5894 5893 5892 5892 5891 5890 5889 5888 5888 5887
5904 5904 5904 5904 5904 5903 5903 5903 5903 5903 5902 5902 5902 5902 5901 5901 5901 5900 5900 5900 5899 5899 5898 5898 5897 5897 5896 5896 5895 5894 5894 5893 5892 5891 5890 5890 5889 5888 5887 5886 5886 5885
5903 5903 5902 5902 5902 5902 5902 5901 5901 5901 5901 5900 5900 5899 5899 5899 5898 5898 5897 5897 5897 5897 5896 5896 5895 5894 5894 5893 5893 5892 5892 5891 5890 5889 5888 5887 5886 5886 5885 5884 5884 5883
5901 5901 5901 5901 5900 5900 5900 5899 5899 5899 5899 5898 5898 5897 5897 5896 5896 5896 5895 5895 5894 5894 5894 5893 5893 5892 5891 5891 5890 5889 5889 5888 5887 5887 5886 5885 5883 5882 5882 5881 5881 5880
5900 5900 5899 5899 5899 5898 5898 5898 5897 5897 5897 5896 5896 5895 5895 5894 5894 5893 5893 5892 5892 5891 5891 5890 5890 5889 5888 5888 5887 5886 5885 5885 5884 5883 5883 5882 5881 5880 5878 5878 5877 5877
5898 5898 5897 5897 5897 5896 5896 5895 5895 5895 5894 5894 5893 5893 5892 5892 5891 5891 5890 5890 5889 5889 5888 5887 5886 5886 5885 5884 5884 5883 5882 5881 5881 5880 5879 5878 5877 5876 5875 5874 5873 5873
5896 5896 5895 5895 5895 5894 5894 5893 5893 5892 5892 5891 5891 5890 5890 5889 5888 5888 5887 5886 5886 5885 5884 5884 5883 5882 5881 5881 5880 5879 5878 5878 5877 5876 5875 5875 5874 5873 5872 5871 5870 5869
5894 5894 5893 5893 5892 5892 5891 5891 5890 5890 5889 5889 5888 5887 5887 5886 5885 5885 5884 5883 5882 5881 5881 5880 5879 5878 5877 5877 5876 5875 5874 5874 5873 5872 5871 5870 5869 5869 5868 5867 5866 5865
5892 5891 5891 5890 5890 5889 5888 5888 5887 5887 5886 5885 5885 5884 5884 5883 5882 5881 5880 5879 5878 5877 5876 5876 5875 5874 5873 5872 5871 5871 5870 5869 5868 5867 5867 5866 5865 5864 5863 5863 5862 5861
5889 5889 5888 5888 5887 5886 5885 5885 5884 5883 5883 5882 5882 5881 5880 5879 5878 5877 5876 5875 5874 5873 5872 5871 5870 5869 5868 5867 5866 5865 5865 5864 5863 5862 5862 5861 5860 5859 5858 5857 5857 5857
5886 5886 5885 5885 5884 5883 5882 5881 5880 5880 5879 5879 5878 5877 5876 5875 5874 5873 5872 5870 5869 5868 5867 5866 5865 5864 5863 5862 5861 5860 5859 5858 5858 5857 5856 5855 5855 5854 5853 5852 5852 5851
5883 5883 5882 5881 5880 5879 5878 5878 5877 5876 5875 5875 5874 5873 5871 5870 5869 5868 5867 5865 5864 5863 5862 5861 5860 5859 5858 5857 5856 5855 5854 5853 5852 5851 5850 5849 5849 5848 5847 5846 5846 5845
5880 5879 5878 5877 5876 5875 5875 5874 5873 5872 5871 5870 5869 5868 5867 5865 5864 5863 5862 5860 5859 5858 5857 5856 5855 5854 5853 5852 5850 5849 5848 5847 5846 5845 5844 5843 5842 5842 5841 5840 5840 5839
5876 5876 5874 5873 5872 5871 5870 5869 5868 5867 5866 5865 5864 5863 5861 5860 5859 5858 5856 5855 5853 5852 5851 5850 5849 5848 5847 5846 5845 5843 5842 5841 5840 5839 5838 5837 5836 5835 5834 5834 5833 5833
5872 5871 5870 5869 5868 5867 5866 5865 5864 5862 5861 5860 5859 5857 5856 5855 5853 5852 5850 5849 5848 5846 5845 5844 5843 5841 5840 5839 5838 5837 5836 5835 5834 5833 5832 5831 5830 5829 5828 5827 5827 5826
5868 5867 5866 5865 5864 5863 5862 5861 5859 5858 5857 5855 5854 5852 5851 5849 5847 5846 5844 5843 5841 5840 5838 5837 5835 5834 5833 5832 5831 5830 5829 5828 5827 5826 5825 5824 5823 5823 5822 5821 5820 5819
5864 5863 5862 5861 5860 5859 5857 5856 5855 5853 5852 5850 5848 5847 5845 5843 5841 5840 5838 5836 5835 5833 5831 5830 5828 5827 5826 5825 5824 5823 5822 5821 5820 5819 5818 5818 5817 5816 5815 5814 5813 5813
5860 5859 5858 5857 5856 5854 5853 5851 5850 5848 5847 5845 5843 5841 5839 5837 5835 5834 5832 5830 5829 5827 5825 5824 5822 5821 5820 5819 5818 5817 5816 5815 5814 5812 5812 5811 5810 5809 5808 5807 5807 5806
5856 5855 5854 5853 5851 5850 5848 5846 5845 5843 5842 5840 5838 5836 5834 5832 5830 5828 5827 5825 5823 5822 5820 5818 5816 5815 5814 5813 5812 5811 5810 5809 5808 5806 5805 5804 5803 5802 5801 5800 5800 5799
5853 5851 5850 5848 5847 5845 5843 5842 5840 5838 5837 5835 5833 5831 5829 5827 5825 5823 5821 5819 5817 5816 5815 5813 5811 5810 5808 5807 5806 5805 5803 5802 5801 5800 5798 5797 5797 5795 5794 5793 5792 5792
5849 5847 5846 5844 5842 5841 5839 5838 5836 5834 5832 5830 5828 5826 5824 5822 5820 5818 5816 5814 5812 5810 5809 5807 5805 5803 5802 5801 5799 5798 5797 5796 5794 5793 5792 5790 5789 5789 5787 5786 5785 5785
5845 5843 5841 5840 5838 5837 5835 5833 5831 5829 5827 5825 5823 5821 5818 5816 5814 5812 5810 5808 5806 5804 5803 5801 5799 5797 5796 5794 5793 5791 5790 5789 5787 5786 5785 5783 5782 5781 5780 5779 5778 5777
5840 5839 5837 5836 5834 5833 5831 5829 5827 5824 5822 5820 5818 5816 5813 5811 5809 5807 5805 5803 5801 5799 5797 5795 5793 5791 5790 5788 5786 5784 5783 5782 5780 5779 5777 5776 5775 5773 5772 5771 5770 5770
5836 5835 5833 5832 5830 5828 5826 5824 5822 5820 5817 5815 5813 5811 5809 5806 5804 5802 5799 5797 5795 5793 5791 5789 5787 5785 5783 5781 5780 5778 5776 5775 5773 5771 5770 5768 5767 5766 5765 5764 5763 5762
5833 5831 5830 5828 5826 5824 5822 5819 5817 5815 5813 5811 5808 5806 5804 5801 5798 5796 5794 5791 5788 5787 5784 5782 5780 5778 5776 5774 5772 5770 5769 5767 5765 5764 5762 5761 5759 5758 5757 5756 5754 5754
5829 5827 5825 5823 5821 5819 5817 5815 5813 5810 5808 5806 5803 5801 5798 5795 5793 5791 5788 5785 5782 5780 5778 5775 5773 5771 5769 5767 5765 5763 5761 5760 5758 5756 5754 5753 5752 5750 5749 5747 5746 5745
Wind_Speed
4 4 5 5 6 7 7 7 8 8 8 9 9 9 10 10 11 11 12 12 13 13 13 14 15 15 16 16 17 17 17 17 17 17 17 17 17 17 18 18 18 17
7 7 7 8 8 9 9 9 10 10 11 11 11 12 12 12 13 14 14 15 15 16 16 17 17 18 18 18 19 19 19 20 20 20 20 19 19 19 19 19 19 19
10 10 10 10 10 11 11 11 12 12 12 13 13 14 14 15 15 16 17 17 18 18 19 19 20 20 21 21 21 21 21 22 22 22 22 22 22 22 21 20 20 20
12 12 12 12 13 13 13 14 14 14 14 15 15 16 16 17 17 18 19 20 21 21 21 22 22 23 23 24 24 24 24 24 24 24 24 25 25 25 25 24 23 22
15 15 15 15 15 15 15 15 16 16 16 17 17 18 18 19 20 20 21 22 23 23 24 24 25 25 25 26 26 27 27 27 27 27 27 27 27 27 28 27 27 25
17 17 18 18 18 18 18 18 18 18 19 19 20 20 21 22 22 23 24 25 26 26 26 27 27 27 27 28 28 29 29 29 29 29 29 29 29 29 29 30 30 29
20 20 20 20 20 20 20 20 20 21 21 22 22 23 24 25 26 27 28 29 30 30 29 29 29 29 30 30 30 30 31 31 31 31 31 31 31 31 32 32 32 32
22 22 22 22 22 22 22 22 23 23 24 24 26 27 27 28 29 31 32 33 33 33 32 32 32 32 32 32 32 32 33 33 33 34 34 34 34 34 34 34 33 34
24 24 25 24 24 24 24 25 25 25 26 27 29 30 31 32 33 35 35 35 35 34 34 34 33 33 34 34 34 34 35 35 35 36 36 36 36 36 36 36 35 35
26 26 26 26 26 26 26 27 28 28 29 30 31 33 35 36 37 38 37 37 36 35 35 35 35 35 35 35 36 36 37 37 37 37 37 37 38 38 38 38 38 37
26 27 27 28 28 28 29 30 30 31 32 33 34 36 38 39 39 39 38 37 37 36 36 36 36 37 37 37 38 38 39 39 39 39 39 39 39 39 40 40 39 39
27 27 28 29 30 30 31 32 33 34 35 36 37 39 40 40 40 39 38 38 37 37 37 37 37 38 38 38 39 39 39 40 40 40 40 40 40 40 40 40 41 40
28 29 29 30 31 32 33 34 35 36 37 38 39 40 40 40 39 38 38 38 37 38 38 38 38 39 39 39 39 40 40 40 40 41 41 41 41 41 41 41 41 41
29 30 31 32 33 34 35 35 36 38 39 39 40 40 39 39 38 38 38 38 38 38 38 39 39 39 39 40 40 40 40 40 41 41 41 41 41 41 41 41 42 42
32 32 33 33 34 35 36 36 37 38 39 39 39 39 38 38 38 38 38 38 39 39 39 39 39 39 39 39 39 40 40 40 41 41 41 42 42 42 42 42 43 43
33 34 34 34 35 35 36 37 37 38 38 38 38 38 38 38 38 38 39 39 40 40 40 40 40 40 39 39 39 40 40 40 41 41 41 42 42 42 42 43 43 44
34 34 35 35 35 36 36 36 37 37 37 37 37 37 38 38 39 40 40 41 41 41 41 41 40 40 40 40 40 40 40 41 41 41 41 42 42 42 42 43 43 43
34 34 35 35 35 35 35 35 35 35 35 36 36 37 38 39 40 41 41 41 41 40 40 40 40 40 40 40 40 40 40 41 41 41 41 41 42 42 42 42 43 43
33 33 33 33 33 33 33 34 34 35 35 36 36 37 38 39 39 40 40 40 40 39 39 40 40 40 40 41 40 40 40 40 40 41 41 41 41 41 42 42 42 43
31 31 31 31 32 32 33 34 34 35 35 36 37 38 38 39 39 39 40 40 40 40 40 41 41 41 41 41 41 41 41 41 41 41 41 41 41 41 42 43 43 43
30 30 30 31 31 32 33 34 34 35 36 37 38 38 39 39 39 40 40 41 42 42 42 42 42 43 43 43 42 42 42 42 42 42 42 42 42 43 43 43 44 44
30 30 30 31 32 32 33 34 35 36 37 38 38 39 39 40 40 41 42 42 43 43 43 43 43 44 44 43 44 43 43 43 43 43 44 44 44 44 44 45 45 45
30 30 31 32 32 33 34 35 36 37 38 38 39 39 40 41 42 42 43 43 43 43 43 43 43 44 44 44 45 45 45 45 45 45 45 45 45 45 45 45 46 46
30 31 31 32 33 34 35 37 37 38 39 39 40 40 41 42 42 43 43 43 43 43 44 44 44 45 45 45 45 46 45 45 45 45 45 45 45 45 46 46 46 46
31 31 32 33 34 35 37 38 38 39 40 40 41 41 42 42 42 42 43 43 44 44 44 45 45 45 46 45 45 46 45 45 45 45 45 46 46 46 47 47 48 48
31 32 33 34 35 37 38 38 39 40 40 41 41 41 42 42 42 42 43 43 44 44 45 45 45 45 45 45 45 45 45 45 46 46 46 46 47 47 47 48 48 49
Wind_Direction
248 254 260 265 270 275 281 285 290 294 297 299 300 302 304 305 305 306 307 306 306 305 304 304 303 303 303 304 304 304 305 304 304 303 302 301 301 302 303 303 303 303
252 256 260 264 269 273 279 283 288 292 295 298 300 303 304 306 305 305 305 304 304 304 303 302 300 299 299 298 298 298 299 299 299 299 298 297 296 295 295 296 297 298
257 260 262 266 271 275 280 284 288 291 294 297 300 302 303 304 305 305 304 304 303 302 301 300 299 298 297 296 295 294 294 294 294 295 295 294 294 293 292 291 291 292
265 266 268 270 272 275 279 282 286 289 292 295 297 299 301 301 302 302 302 301 301 300 299 298 297 296 295 294 294 293 292 291 291 291 291 291 291 291 291 290 288 287
268 269 269 270 272 274 277 280 283 286 289 291 293 295 296 297 298 298 298 298 297 297 296 295 295 294 293 292 292 291 290 289 289 288 287 287 287 288 288 288 287 286
270 271 271 272 273 275 277 279 281 284 286 288 290 291 292 294 295 296 296 296 295 294 293 292 292 291 290 290 289 288 288 287 286 286 285 285 285 285 285 285 285 285
272 272 273 273 274 276 277 280 282 284 286 288 290 291 292 294 295 296 297 297 295 293 291 290 289 289 288 287 287 286 285 285 284 283 283 283 282 282 283 283 283 284
275 275 275 276 277 278 279 280 282 284 287 290 291 292 293 294 295 297 297 296 294 292 290 289 288 287 287 286 285 284 284 283 282 281 281 280 280 280 280 281 281 281
279 279 279 278 278 278 278 279 281 283 286 289 291 292 293 294 295 295 295 293 291 289 288 287 287 286 285 285 284 283 282 281 280 280 279 279 278 278 278 278 278 278
280 278 278 277 276 276 277 278 280 283 286 289 291 292 292 293 293 293 292 290 288 287 286 286 285 285 284 284 283 282 281 280 278 278 277 277 277 277 276 276 276 276
279 278 277 277 277 278 279 281 283 285 288 289 290 291 291 291 291 290 288 287 286 286 286 286 286 285 285 284 283 282 280 279 278 277 277 276 275 275 275 275 275 274
281 280 280 281 281 282 283 285 287 288 289 290 290 290 289 289 288 287 287 286 287 287 287 288 287 287 286 285 283 282 281 280 279 278 277 276 275 274 274 274 273 273
285 284 285 285 285 286 287 288 289 290 290 290 289 288 287 287 287 287 288 289 289 290 290 289 288 287 286 284 283 282 281 280 278 277 276 275 275 274 273 272 272 272
288 288 287 287 288 288 289 290 290 290 289 288 288 287 287 288 288 290 291 291 292 292 291 290 288 287 286 284 282 281 280 279 278 277 276 275 274 273 273 272 272 271
290 289 289 289 289 289 289 289 288 288 288 287 288 288 289 290 291 293 293 294 294 294 293 292 290 289 288 286 284 283 281 279 278 277 276 276 275 274 273 273 272 271
290 290 289 289 288 288 288 287 286 286 287 288 289 290 292 293 295 296 297 298 298 298 297 296 295 293 291 289 287 286 284 282 280 279 277 276 276 275 274 273 272 272
289 289 289 289 289 288 288 288 288 289 290 291 293 294 296 298 300 301 302 302 302 301 299 298 297 296 294 292 290 288 286 284 282 281 279 277 276 275 274 273 272 271
288 288 289 289 289 290 290 291 293 294 295 297 298 300 302 303 304 304 303 302 301 300 298 297 296 296 294 292 290 288 286 284 283 281 280 278 277 276 274 273 272 272
288 289 290 292 293 294 295 296 297 298 300 302 303 304 305 304 303 302 301 300 300 299 298 297 296 294 293 291 289 287 286 284 283 281 280 279 278 277 276 275 273 273
293 294 296 297 298 298 299 299 300 302 303 304 304 304 303 302 301 301 300 300 300 299 298 297 295 293 292 290 289 287 286 284 283 282 281 280 278 277 277 276 275 274
298 299 300 300 300 300 300 302 303 304 305 304 304 303 302 302 301 301 301 300 299 298 297 295 294 292 291 290 289 288 287 286 285 283 282 281 280 279 278 277 276 275
301 301 301 301 301 301 302 303 304 304 304 304 303 303 302 302 301 301 300 299 298 296 295 294 293 292 291 291 290 289 288 287 286 285 284 283 281 280 279 277 276 275
302 301 301 301 301 302 303 304 305 304 304 303 303 302 302 301 301 300 298 297 296 295 294 293 292 292 291 291 290 289 288 287 286 285 284 283 281 280 279 278 277 276
301 300 301 301 302 304 305 305 305 304 303 302 302 302 301 300 299 298 297 296 296 295 294 294 293 293 292 291 290 289 288 287 286 285 283 282 281 280 279 278 277 276
300 301 301 303 304 305 305 305 304 303 302 302 302 301 300 299 298 297 297 297 296 296 295 295 294 293 292 292 290 289 288 287 286 285 283 282 281 280 279 278 277 276
301 302 303 304 305 305 304 303 302 302 302 302 301 300 299 298 298 297 297 298 297 297 296 295 295 294 293 292 291 289 288 287 286 284 283 282 281 280 279 278 277 276